STARLINK-38196, 100200

Orbit data source: Space-Track

STARLINK-38196, 100200 is a payload satellite owned by SpaceX/Seattle (US) in SSO that was launched on Sat, 01 Aug 2026 UTC launched from the Air Force Western Test Range (AFWTR). Payload-class satellites include a variety of spacecraft equipped with specific instruments for various scientific and technological missions. These include communications satellites like Starlink; space stations such as the ISS; scientific satellites like the Hubble; Earth observation satellites from companies like Planet Labs, Umbra, and HawkEye 360; GPS; miniature CubeSats for education and research; and military/defense satellites.

Loading next visibility...
Identifier
100200, 2026-175X
Orbit
SSO
Country
Flag of USUS
Related business
Manufacturer
SpaceX/Seattle
Mission
Operational spacecraft
Bus & Motor
STARLINK V2MO, Unknown motor
Mass
575 kg wet, ~530 kg dry
Launch date (UTC)
2026-08-01 (2 months ago)
Launch vehicle
Unknown
Launch site
Air Force Western Test Range (AFWTR)
Object type
Payload
Rocket body
Debris
Shape & HBR
BOX + PAN, 17.7 m
Radar Cross Section
Large (>1 m²)

Expand to show TLE details & history
Last TLE update: 7 hours ago

TLE from 7 hours ago
0 STARLINK-38196
1 A0200U 26175X   26263.93389401 -.00424903  00000-0 -47457-2 0  9992
2 A0200  97.2842 106.3786 0001617  35.7501 324.3866 15.64032692  9248
Epoch: 2026-09-20T22:24Z
TLE epoch observation values (Epoch: 2026-09-20T22:24:48.442Z)
Latitude
-0.00005°
Longitude
130.3558°
Altitude
378.287 km
Speed
7.683 km/s
True Right ascension
07h 05m 30s
True Declination
0° 00' 00"
Sunlit
Object was in daylight at epoch
Visualization orbit readout
Latitude
Unknown
Longitude
Unknown
Altitude
Unknown
Speed
Unknown
Apparent Right ascension
Unknown
Apparent Declination
Unknown
Sunlit
N/A
Visualization observer readout
Local Sidereal Time
22:06:42
Azimuth
Unknown
Elevation
Unknown
Doppler factor
Unknown
Orbital elements
Apogee altitude
374.016 km
Perigee altitude
371.833 km
Semi-major axis
6,751.061 km
Eccentricity
0.00016
Inclination
97.2842°
RAAN
106.3786°
Arg. of periapsis
35.7501°
True anomaly
324.37581°
Mean anomaly
324.3866°
Eccentric anomaly
324.3812°
Mean motion
3.91278 °/min
Orbital period
92.01 mins
BSTAR
-0.0047457
Loading maneuver chart data...
Computing Atmospheric mass density...
Loading historical data...
Loading historical data...
Loading historical data...
Loading historical data...
Loading historical data...
Loading historical data...
Loading historical data...

Documentation

Showing up to 5 results
|